Wind_Speed
25 23 22 21 19 18 16 15 14 12 11 10 9 8 7 6 6 7 7 7 6 6 6 6 6 5 4 3 3 2 2 3 3 3 4 4 4 4 5 5 5 6 6
29 28 26 24 23 21 20 18 17 16 14 13 12 11 10 10 8 8 8 8 8 8 8 7 7 7 6 5 5 5 5 5 5 6 6 7 7 7 8 8 8 9 9
32 30 29 28 27 25 24 22 20 19 17 16 15 14 13 12 11 11 10 10 10 10 9 9 9 8 8 8 8 8 8 8 8 9 9 9 10 10 10 11 11 11 12
34 32 31 30 30 28 26 25 23 21 20 19 18 17 16 16 14 14 13 12 12 12 11 11 11 11 10 10 10 11 11 11 11 11 12 12 12 13 14 14 14 14 14
36 35 34 32 32 31 29 28 27 24 23 22 21 20 19 18 18 17 16 15 15 15 14 14 14 13 13 13 13 13 13 14 14 14 15 15 16 16 16 17 17 17 17
36 35 35 33 32 32 32 31 29 27 26 25 23 22 21 21 20 20 19 18 18 17 17 17 16 16 16 16 16 16 16 16 17 17 18 18 19 19 19 19 19 19 20
38 35 36 35 34 33 33 33 31 29 27 26 25 24 23 23 22 22 22 21 21 20 20 19 19 19 18 19 19 19 19 19 19 19 20 20 21 21 21 21 21 21 22
41 40 37 36 36 35 33 33 32 31 30 29 27 26 25 25 25 24 24 23 23 22 22 22 22 21 21 21 21 21 22 22 22 22 22 22 23 23 23 23 23 23 23
44 42 39 37 36 34 34 35 34 33 32 31 30 27 27 27 26 25 25 25 25 24 24 24 24 23 23 23 24 23 23 23 24 24 24 24 24 25 25 25 25 25 25
44 44 42 40 39 37 35 34 35 34 33 33 32 30 29 29 27 26 26 26 26 26 26 26 25 25 25 24 25 25 25 25 25 25 26 25 25 26 26 27 27 27 27
42 42 42 42 40 39 38 35 33 35 35 34 33 32 30 29 28 27 27 27 27 27 27 26 26 26 26 25 26 27 27 27 27 27 27 27 27 27 28 28 28 28 28
40 40 39 39 39 36 35 36 34 34 35 34 33 33 32 30 29 28 28 28 27 27 27 26 27 27 27 26 26 27 28 28 28 29 29 29 29 29 30 30 30 30 30
37 37 37 37 37 37 35 36 36 34 34 34 33 32 32 31 30 28 28 29 28 28 28 27 28 27 27 27 27 28 28 29 29 29 30 30 30 31 31 31 31 31 31
33 34 35 35 35 35 35 36 37 35 35 34 34 33 32 33 32 30 28 29 28 28 28 28 29 28 28 28 27 27 28 28 30 30 30 31 31 32 32 32 32 32 32
26 29 32 32 33 34 34 34 35 35 35 35 35 35 33 33 32 31 31 30 29 28 29 29 30 30 30 29 29 28 28 28 29 29 30 31 32 32 32 32 32 31 31
22 24 27 29 31 32 33 34 33 33 34 34 34 33 33 33 33 32 31 31 30 30 30 31 30 30 30 30 30 30 30 30 30 30 30 31 32 32 31 31 31 31 30
16 19 23 25 27 29 31 32 33 34 34 34 34 34 34 33 33 33 32 32 31 30 30 31 31 31 31 30 30 31 31 31 30 30 30 30 30 29 28 28 28 28 28
11 15 17 20 23 25 27 30 31 32 33 33 34 34 34 34 34 33 32 32 31 30 30 31 31 32 31 31 30 29 29 27 28 29 29 28 26 26 26 26 26 26 27
7 9 12 15 19 21 24 27 27 27 29 31 32 32 32 33 34 33 32 32 32 31 31 31 30 30 30 29 28 28 28 27 27 26 25 24 24 24 24 24 24 24 23
7 7 9 11 15 17 20 22 24 26 27 28 29 30 30 31 32 32 31 31 31 31 30 30 28 28 28 27 26 25 25 23 22 21 20 20 20 21 21 21 20 20 20
9 8 8 9 12 14 16 18 20 22 23 25 26 27 27 28 29 30 29 28 29 28 28 27 26 26 25 24 24 23 21 19 17 17 16 16 16 16 16 16 17 17 18
11 10 10 10 11 12 13 15 17 19 20 22 23 25 26 26 26 26 26 27 26 26 26 25 24 22 22 22 20 19 18 16 15 14 13 12 12 13 13 14 15 16 17
13 12 10 9 9 10 11 13 14 16 18 19 21 22 24 24 24 24 24 24 23 23 22 21 20 19 19 18 17 16 15 13 12 12 11 11 11 11 12 13 14 15 15
15 13 11 9 8 8 9 10 12 14 15 16 17 18 20 21 22 21 20 21 21 20 20 19 18 17 16 15 14 13 12 11 10 9 9 10 11 11 11 12 12 12 13
17 15 12 10 8 7 7 8 9 11 12 13 14 16 17 18 20 20 19 19 19 19 18 18 16 15 13 12 12 11 11 10 9 8 8 9 9 9 9 9 10 10 11
19 16 13 11 9 7 6 5 6 7 9 10 11 13 14 16 16 16 17 17 18 18 16 15 15 13 12 11 10 10 9 9 8 8 7 7 7 7 7 7 7 8 8
Wind_Direction
249 245 242 243 245 245 246 246 246 243 241 239 234 230 229 221 209 214 209 207 206 205 204 204 205 207 215 227 237 251 268 278 285 290 290 291 290 286 284 286 285 277 275
250 247 243 241 242 243 245 245 245 244 243 242 239 236 234 232 223 225 223 218 217 217 218 219 221 225 234 244 251 260 268 274 278 283 286 288 288 287 286 285 287 283 280
249 249 245 241 241 242 244 244 244 243 242 241 240 238 236 236 233 232 233 229 226 227 229 230 233 236 242 249 257 264 269 272 276 279 282 286 289 290 290 289 289 287 284
252 248 249 246 242 243 243 243 243 243 243 241 240 239 237 237 237 237 238 237 236 236 236 238 241 244 248 252 259 265 270 272 275 279 281 284 287 289 290 289 289 288 286
256 252 249 249 246 243 242 241 242 244 243 242 240 240 239 239 240 240 239 239 239 241 242 243 247 250 253 256 260 264 268 272 275 278 280 282 284 287 288 289 289 288 287
259 257 254 251 248 246 242 242 243 242 241 241 241 241 241 241 242 242 241 239 240 241 245 247 250 253 256 259 262 265 269 272 275 277 280 282 284 285 286 288 289 288 288
259 258 257 255 250 249 248 244 240 239 238 239 240 240 241 242 243 244 243 242 242 242 244 248 251 254 256 259 263 267 270 272 274 276 279 281 282 284 285 287 287 288 289
260 258 258 258 255 252 249 246 241 238 236 236 239 239 240 242 242 243 245 246 246 246 246 248 251 254 258 260 263 266 269 270 271 274 277 279 280 282 283 286 288 288 289
259 259 259 256 255 254 249 245 241 238 238 237 237 237 238 239 241 242 246 248 249 249 250 250 251 253 256 260 263 264 268 270 270 272 275 278 280 281 283 285 287 287 289
259 258 257 254 253 253 250 248 244 239 237 235 235 237 238 238 240 243 247 248 250 251 251 253 254 254 255 257 262 264 266 269 270 271 273 275 278 280 282 284 285 287 288
255 256 256 254 253 255 252 249 244 242 239 237 237 237 237 238 241 243 246 248 250 252 252 254 256 257 257 256 260 264 266 268 269 269 271 273 275 279 281 283 284 285 287
251 251 253 252 251 249 249 249 244 242 241 239 238 238 238 239 240 241 244 247 250 251 252 254 256 257 259 258 258 261 264 265 267 267 268 271 274 278 280 281 282 284 285
247 247 247 248 248 245 244 245 243 241 241 240 238 239 239 238 240 241 243 247 249 251 252 253 256 256 258 259 260 260 262 264 265 267 267 269 273 277 280 281 281 283 285
245 244 242 242 242 242 242 243 243 242 242 240 239 240 241 241 241 241 243 247 250 252 252 251 252 255 258 260 261 261 262 263 265 267 267 269 273 276 278 279 281 281 283
244 242 239 239 240 239 238 238 239 240 241 241 239 240 240 241 241 242 244 246 249 252 251 252 254 256 258 260 261 262 263 265 266 268 269 270 272 274 276 278 279 280 282
243 242 239 236 236 236 235 235 236 236 239 239 239 240 240 241 244 245 246 247 250 253 254 255 255 256 258 260 263 263 264 266 268 269 270 270 271 272 274 276 278 279 281
245 242 239 238 238 238 237 237 237 237 239 240 239 240 240 240 242 244 246 247 248 251 255 256 255 257 259 260 263 265 266 266 266 268 269 269 270 273 274 276 278 280 282
259 248 244 240 237 239 238 237 236 236 238 239 239 239 240 242 242 244 246 248 250 252 255 257 258 258 259 261 264 266 265 266 266 265 265 265 267 270 272 274 278 280 282
287 266 259 249 244 241 240 238 237 236 237 239 240 241 242 242 243 245 247 249 252 254 255 257 258 257 259 261 262 262 263 263 264 262 262 263 266 269 271 274 279 282 285
313 290 276 261 252 248 245 241 240 239 239 239 240 242 242 243 245 247 249 250 251 253 255 257 259 258 257 257 257 259 261 261 259 258 258 261 266 270 272 276 280 284 287
338 315 298 281 264 257 251 247 244 243 243 242 242 243 243 244 246 247 248 249 249 251 253 253 255 254 254 254 255 256 253 252 251 252 256 262 268 272 274 278 282 286 290
341 328 312 296 280 269 260 253 248 246 245 244 244 243 243 243 243 244 245 247 248 250 249 249 251 251 249 250 249 246 242 243 246 249 255 263 269 273 278 283 287 290 293
346 336 323 307 293 280 268 258 252 247 244 243 244 243 240 239 239 240 242 241 242 243 240 240 240 241 240 239 237 236 236 238 243 250 256 263 270 277 283 288 292 295 296
356 347 336 322 308 294 280 266 256 249 247 245 241 238 237 235 236 238 238 236 233 233 231 229 229 230 228 227 223 223 226 231 242 253 260 266 274 280 286 291 294 297 300
3 359 352 343 327 308 290 276 261 251 247 246 241 234 231 229 230 230 228 225 224 221 220 217 214 213 215 214 214 220 226 231 237 245 253 264 274 281 287 291 296 302 308
12 11 8 2 355 338 316 289 266 249 242 237 230 225 223 222 220 217 218 218 215 208 207 201 200 201 204 206 211 219 224 227 234 243 252 261 270 277 285 295 303 310 315
Height
5894 5896 5897 5898 5900 5901 5902 5903 5904 5904 5905 5906 5906 5907 5908 5909 5910 5910 5911 5912 5913 5914 5915 5916 5917 5918 5919 5920 5920 5921 5922 5922 5923 5923 5923 5924 5924 5925 5925 5925 5926 5926 5926
5888 5890 5892 5893 5895 5896 5898 5899 5900 5902 5902 5903 5904 5905 5906 5907 5908 5909 5909 5911 5912 5913 5914 5915 5916 5917 5918 5919 5920 5921 5921 5922 5922 5923 5923 5923 5924 5924 5924 5924 5924 5924 5925
5881 5883 5885 5887 5889 5891 5893 5894 5896 5898 5899 5900 5901 5902 5903 5904 5906 5907 5908 5909 5910 5911 5913 5914 5915 5916 5917 5918 5919 5920 5920 5921 5921 5922 5922 5922 5922 5923 5923 5923 5923 5923 5923
5873 5875 5878 5880 5882 5885 5887 5889 5891 5893 5895 5896 5897 5899 5900 5901 5903 5905 5906 5907 5908 5910 5911 5912 5913 5915 5916 5917 5917 5918 5919 5919 5920 5920 5921 5921 5921 5921 5921 5921 5921 5920 5920
5866 5868 5870 5873 5875 5878 5881 5883 5885 5888 5890 5892 5893 5894 5896 5898 5899 5901 5903 5905 5906 5907 5908 5910 5911 5912 5914 5915 5915 5916 5917 5918 5918 5918 5919 5919 5919 5919 5919 5918 5918 5918 5917
5857 5860 5863 5865 5868 5871 5874 5877 5879 5881 5884 5886 5888 5890 5892 5894 5895 5897 5899 5901 5902 5904 5905 5906 5908 5909 5911 5912 5913 5914 5914 5915 5916 5916 5916 5916 5916 5916 5916 5915 5915 5914 5914
5849 5852 5855 5857 5860 5863 5866 5869 5872 5874 5877 5880 5882 5885 5887 5889 5891 5892 5894 5896 5898 5900 5902 5903 5904 5906 5907 5908 5910 5911 5911 5912 5912 5913 5913 5913 5913 5913 5912 5912 5912 5911 5910
5840 5844 5847 5850 5852 5856 5859 5861 5864 5867 5870 5873 5876 5879 5881 5884 5885 5887 5889 5891 5893 5895 5897 5899 5900 5902 5903 5904 5906 5906 5907 5908 5908 5909 5909 5909 5909 5909 5909 5908 5908 5907 5906
5831 5834 5838 5841 5844 5847 5851 5854 5857 5860 5863 5866 5869 5872 5875 5877 5879 5882 5884 5886 5888 5890 5892 5894 5895 5897 5899 5900 5901 5902 5902 5903 5903 5904 5904 5905 5905 5905 5904 5904 5903 5903 5902
5820 5824 5828 5832 5836 5839 5843 5846 5849 5853 5856 5859 5862 5865 5868 5871 5874 5876 5878 5880 5882 5884 5886 5888 5890 5891 5894 5896 5896 5896 5897 5898 5898 5899 5899 5900 5900 5900 5899 5899 5898 5898 5897
5809 5814 5818 5823 5826 5830 5834 5838 5841 5845 5848 5851 5855 5858 5861 5864 5867 5870 5872 5874 5876 5878 5880 5882 5883 5885 5887 5890 5891 5891 5891 5892 5893 5894 5894 5894 5894 5894 5894 5893 5893 5892 5891
5798 5803 5808 5812 5817 5821 5825 5829 5833 5836 5840 5843 5847 5850 5853 5856 5859 5862 5864 5867 5869 5871 5873 5875 5877 5879 5881 5883 5885 5885 5885 5886 5887 5887 5888 5888 5889 5888 5888 5888 5887 5886 5885
5788 5792 5798 5803 5807 5812 5816 5820 5825 5828 5832 5835 5839 5842 5846 5849 5851 5854 5857 5859 5862 5864 5867 5869 5870 5872 5874 5876 5877 5878 5879 5880 5880 5881 5881 5882 5882 5882 5882 5881 5881 5880 5879
5779 5783 5788 5793 5797 5802 5807 5811 5816 5819 5823 5827 5830 5834 5837 5840 5843 5846 5849 5852 5854 5857 5859 5861 5863 5865 5867 5869 5870 5871 5872 5873 5874 5874 5875 5875 5876 5876 5875 5875 5874 5874 5873
5771 5775 5779 5784 5788 5793 5798 5802 5806 5810 5814 5818 5821 5825 5828 5832 5835 5839 5842 5845 5848 5849 5852 5854 5856 5858 5859 5861 5863 5864 5865 5866 5866 5867 5867 5868 5868 5868 5868 5868 5867 5867 5866
5765 5768 5771 5776 5780 5784 5788 5793 5797 5801 5805 5809 5812 5816 5820 5823 5827 5830 5833 5836 5839 5842 5844 5846 5848 5850 5852 5854 5855 5857 5858 5859 5859 5860 5860 5861 5861 5861 5861 5861 5860 5860 5859
5761 5763 5766 5769 5773 5777 5781 5785 5789 5792 5796 5800 5804 5808 5811 5815 5818 5822 5825 5828 5830 5833 5836 5838 5840 5842 5844 5846 5847 5849 5850 5851 5851 5852 5853 5853 5854 5854 5854 5854 5854 5853 5853
5759 5760 5761 5764 5767 5770 5774 5777 5781 5784 5788 5792 5796 5799 5803 5806 5810 5813 5816 5819 5822 5825 5827 5830 5832 5834 5836 5838 5839 5841 5842 5843 5844 5844 5845 5846 5847 5847 5848 5848 5847 5847 5846
5757 5758 5758 5760 5762 5764 5767 5770 5773 5777 5780 5783 5787 5791 5794 5797 5801 5804 5807 5810 5813 5816 5819 5822 5824 5826 5828 5830 5832 5833 5835 5836 5836 5837 5838 5839 5840 5841 5841 5841 5841 5841 5840
5756 5755 5756 5756 5758 5759 5761 5764 5766 5769 5772 5776 5779 5782 5785 5789 5792 5795 5799 5802 5805 5808 5811 5814 5816 5818 5820 5822 5824 5826 5828 5829 5830 5831 5832 5834 5835 5835 5836 5836 5836 5836 5835
5755 5754 5753 5753 5754 5755 5756 5758 5760 5762 5765 5768 5771 5774 5778 5781 5784 5788 5791 5794 5798 5801 5803 5806 5809 5811 5813 5816 5818 5820 5822 5823 5824 5826 5827 5829 5830 5830 5831 5831 5831 5830 5830
5754 5752 5751 5750 5750 5750 5751 5752 5754 5756 5759 5762 5765 5768 5771 5774 5777 5780 5784 5787 5791 5794 5796 5799 5802 5805 5807 5809 5812 5814 5816 5818 5820 5822 5823 5824 5825 5826 5826 5826 5826 5825 5824
5752 5750 5748 5747 5746 5746 5747 5748 5749 5751 5754 5756 5759 5761 5764 5768 5771 5774 5777 5781 5784 5787 5791 5794 5797 5799 5802 5804 5807 5809 5812 5814 5816 5818 5819 5820 5821 5822 5822 5822 5821 5821 5820
5751 5748 5745 5744 5743 5742 5743 5743 5745 5746 5748 5750 5753 5756 5759 5762 5765 5769 5772 5776 5779 5782 5786 5789 5792 5794 5797 5800 5803 5806 5808 5811 5813 5814 5816 5817 5817 5818 5818 5818 5817 5817 5816
5750 5746 5743 5741 5740 5739 5739 5739 5740 5741 5743 5745 5747 5750 5753 5756 5760 5764 5768 5771 5774 5778 5781 5784 5787 5791 5794 5797 5800 5803 5806 5808 5810 5811 5813 5814 5814 5814 5815 5815 5814 5814 5812
5749 5745 5742 5740 5738 5737 5736 5736 5737 5738 5739 5741 5743 5746 5749 5752 5756 5760 5764 5767 5771 5774 5778 5781 5785 5788 5792 5795 5798 5801 5803 5805 5807 5808 5810 5811 5811 5812 5812 5812 5811 5811 5810